Regional Weather Roundup
Issued by NWS

Home | Current Version | Previous Version | Text Only | Print | Product List | Glossary Off
Versions: 1 2 3 4 5 6 7 8 9 10 11 12 13 14 15 16 17 18 19 20 21 22 23 24 25 26 27 28 29 30 31 32 33 34 35 36 37 38 39 40 41 42 43 44 45 46 47 48 49 50

540
ASUS44 KJAN 221310
RWRMS

MISSISSIPPI HOURLY WEATHER ROUNDUP
NATIONAL WEATHER SERVICE JACKSON MS
800 AM CDT WED OCT 22 2014

NOTE: "FAIR: INDICATES FEW OR NO CLOUDS BELOW 12,000 FEET WITH NO
SIGNIFICANT WEATHER AND/OR OBSTRUCTIONS TO VISIBILITY.

MSZ001>002-007>008-010>013-018>021-025>028-034>036-221400-
NORTHWEST MISSISSIPPI

CITY           SKY/WX    TMP DP  RH WIND       PRES   REMARKS
CLARKSDALE     FAIR      50  48  93 NE7       30.20S
CLEVELAND      FAIR      53  50  92 NE8       30.17R
GREENWOOD      CLEAR     54  48  80 NE5       30.17R
GREENVILLE     CLEAR     51  48  89 NE5       30.16R
GRENADA          N/A    N/A N/A N/A MISG        N/A
OLIVE BRANCH   CLEAR     46  46 100 NE7       30.22R
OXFORD         FAIR      46  45  93 NE7       30.21R
TUNICA         SUNNY     48  46  93 N7        30.22R
$$

MSZ003>006-009-014>017-022>024-029>033-037>039-221400-
NORTHEAST MISSISSIPPI

CITY           SKY/WX    TMP DP  RH WIND       PRES   REMARKS
COLUMBUS AFB   SUNNY     49  47  93 N2        30.18R
CORINTH        FAIR      45  43  93 CALM      30.22R FOG
GOLDN TRIANGLE SUNNY     46  43  87 N5        30.16R
STARKVILLE     FAIR      50  46  87 NE6       30.17R
TUPELO         CLEAR     49  45  86 NE8       30.19R
$$

MSZ040-058-221400-
CENTRAL MISSISSIPPI

CITY           SKY/WX    TMP DP  RH WIND       PRES   REMARKS
JACKSON INTL   CLEAR     54  50  86 NE5       30.14R
JACKSON HAWKNS CLEAR     52  49  89 CALM      30.14R
MERIDIAN KEY   SUNNY     51  49  92 N6        30.14R
MERIDIAN NAS   SUNNY     50  48  93 CALM      30.15R
RAYMOND        FAIR      46  43  87 MISG      30.14R
VICKSBURG      CLEAR     53  52  96 CALM      30.14R
$$

MSZ059>079-221400-
SOUTH MISSISSIPPI

CITY           SKY/WX    TMP DP  RH WIND       PRES   REMARKS
BROOKHAVEN     FAIR      48  48 100 CALM      30.14R FOG
HATTIESBURG    SUNNY     54  52  93 CALM      30.12R
MCCOMB         CLEAR     59  51  75 N6        30.11R
NATCHEZ        CLEAR     54  48  82 E3        30.13R
PINE BELT      SUNNY     55  50  82 N6        30.12R
$$

MSZ080>082-221400-
COASTAL MISSISSIPPI

CITY           SKY/WX    TMP DP  RH WIND       PRES   REMARKS
BAY ST LOUIS   SUNNY     61  50  67 NE7       30.08R
BILOXI         SUNNY     60  54  80 NE5       30.08R
PASCAGOULA     SUNNY     56  54  93 N5        30.08R
GULFPORT       SUNNY     59  53  80 N7        30.07R
$$



USA.gov is the U.S. government's official web portal to all federal, state and local government web resources and services.